TimeCST,TemperatureF,Dew PointF,Humidity,Sea Level PressureIn,VisibilityMPH,Wind Direction,Wind SpeedMPH,Gust SpeedMPH,PrecipitationIn,Events,Conditions,WindDirDegrees,DateUTC
12:53 AM,52.0,36.0,54,30.01,10.0,WNW,3.5,-,N/A,,Clear,290,2013-02-11 06:53:00
1:53 AM,52.0,35.1,53,30.03,10.0,NW,10.4,-,N/A,,Clear,310,2013-02-11 07:53:00
2:53 AM,51.1,35.1,54,30.06,10.0,NW,8.1,-,N/A,,Clear,310,2013-02-11 08:53:00
3:53 AM,51.1,34.0,52,30.06,10.0,NNW,10.4,-,N/A,,Clear,330,2013-02-11 09:53:00
4:53 AM,48.9,34.0,56,30.10,10.0,NNW,5.8,-,N/A,,Clear,340,2013-02-11 10:53:00
5:53 AM,46.9,36.0,66,30.10,10.0,North,4.6,-,N/A,,Clear,350,2013-02-11 11:53:00
6:53 AM,46.9,34.0,61,30.13,10.0,North,6.9,-,N/A,,Clear,350,2013-02-11 12:53:00
7:53 AM,46.9,34.0,61,30.16,10.0,North,4.6,-,N/A,,Clear,10,2013-02-11 13:53:00
8:53 AM,48.0,36.0,63,30.18,10.0,NNE,4.6,-,N/A,,Clear,30,2013-02-11 14:53:00
9:53 AM,48.9,35.1,59,30.19,10.0,NE,5.8,-,N/A,,Clear,40,2013-02-11 15:53:00
10:53 AM,50.0,32.0,50,30.20,10.0,NE,6.9,-,N/A,,Clear,40,2013-02-11 16:53:00
11:53 AM,53.1,33.1,47,30.19,10.0,East,4.6,-,N/A,,Clear,100,2013-02-11 17:53:00
12:53 PM,55.9,32.0,40,30.17,10.0,ENE,8.1,-,N/A,,Clear,60,2013-02-11 18:53:00
1:53 PM,57.0,33.1,40,30.14,10.0,ENE,6.9,-,N/A,,Clear,70,2013-02-11 19:53:00
2:53 PM,55.9,33.1,42,30.12,10.0,NE,4.6,-,N/A,,Mostly Cloudy,40,2013-02-11 20:53:00
3:53 PM,55.0,34.0,45,30.13,10.0,ENE,3.5,-,N/A,,Overcast,60,2013-02-11 21:53:00
4:53 PM,54.0,35.1,49,30.11,10.0,NE,5.8,-,N/A,,Scattered Clouds,50,2013-02-11 22:53:00
5:53 PM,53.1,35.1,50,30.13,10.0,Calm,Calm,-,N/A,,Partly Cloudy,0,2013-02-11 23:53:00
6:53 PM,51.1,43.0,74,30.13,10.0,Calm,Calm,-,N/A,,Partly Cloudy,0,2013-02-12 00:53:00
7:53 PM,50.0,44.1,80,30.15,10.0,Calm,Calm,-,N/A,,Mostly Cloudy,0,2013-02-12 01:53:00
8:53 PM,50.0,39.0,66,30.15,10.0,Calm,Calm,-,N/A,,Partly Cloudy,0,2013-02-12 02:53:00
9:53 PM,50.0,43.0,77,30.17,10.0,Calm,Calm,-,N/A,,Clear,0,2013-02-12 03:53:00
10:53 PM,48.0,44.1,86,30.15,10.0,Calm,Calm,-,N/A,,Partly Cloudy,0,2013-02-12 04:53:00
11:53 PM,46.9,44.1,90,30.15,10.0,Calm,Calm,-,N/A,,Partly Cloudy,0,2013-02-12 05:53:00